Temperature
17 15 14 13 12 11 10 9 8 8 7 6 6 5 5 5 4 4 3 3 2 2 1 0 -0 -1 -2 -2 -3 -4 -4 -4 -6 -7 -6 -5 -5 -6 -7 -7 -7 -8 -8
17 16 15 14 13 12 11 10 10 9 8 7 6 6 5 5 4 3 3 3 2 2 1 0 -0 -1 -2 -2 -3 -4 -5 -5 -6 -8 -9 -9 -8 -8 -8 -8 -8 -8 -8
18 17 16 15 14 14 13 13 12 10 9 8 6 5 5 4 4 4 4 3 2 2 1 0 -0 -1 -2 -2 -3 -4 -5 -6 -6 -8 -9 -10 -10 -10 -9 -8 -9 -9 -9
19 18 17 17 16 16 15 14 13 12 10 8 7 6 6 6 6 5 4 3 2 2 1 0 -0 -1 -2 -3 -3 -4 -5 -6 -6 -7 -8 -9 -10 -11 -11 -10 -9 -10 -10
20 19 19 18 18 17 16 15 13 12 11 10 8 7 6 6 5 4 3 3 2 2 1 0 -0 -1 -2 -3 -4 -4 -5 -6 -7 -8 -8 -9 -10 -10 -12 -11 -10 -10 -10
20 20 19 19 18 17 16 15 14 13 12 11 10 8 7 6 5 4 3 3 2 2 1 0 -1 -1 -2 -3 -4 -5 -5 -6 -7 -8 -8 -9 -10 -10 -11 -12 -11 -11 -10
20 20 20 19 19 18 17 17 16 15 14 12 11 10 8 7 5 5 4 3 2 2 1 0 -1 -1 -2 -3 -4 -4 -5 -6 -7 -7 -8 -9 -9 -10 -10 -11 -11 -11 -11
20 20 20 19 19 18 18 17 16 16 15 13 12 11 9 7 6 5 4 3 2 2 1 -0 -1 -1 -2 -3 -4 -4 -5 -6 -7 -7 -8 -9 -9 -9 -10 -10 -11 -12 -11
20 20 19 19 19 18 18 17 17 16 15 14 13 11 10 8 7 5 4 3 2 1 1 -0 -1 -1 -2 -3 -4 -4 -5 -6 -7 -7 -8 -8 -8 -9 -9 -10 -10 -11 -12
19 19 19 19 18 18 18 17 16 16 15 14 13 12 10 9 7 5 4 3 2 1 1 -0 -1 -1 -2 -3 -4 -4 -5 -6 -6 -7 -8 -8 -8 -9 -9 -9 -10 -11 -11
18 18 18 18 18 17 17 17 16 16 15 14 13 12 10 9 7 5 4 3 2 1 0 -0 -1 -1 -2 -3 -4 -4 -5 -6 -6 -7 -8 -8 -8 -9 -9 -9 -10 -10 -11
17 17 17 17 17 17 17 17 16 16 15 14 13 12 10 9 7 6 4 3 2 1 0 -0 -1 -1 -2 -3 -4 -4 -5 -6 -6 -7 -8 -8 -8 -9 -9 -9 -10 -10 -11
16 16 16 16 16 16 16 16 16 15 15 13 13 11 10 9 8 6 4 3 2 1 0 -1 -1 -2 -2 -3 -3 -4 -5 -6 -6 -7 -8 -8 -9 -9 -9 -9 -10 -10 -10
15 15 15 15 15 15 15 15 15 15 14 13 12 12 11 9 8 6 4 3 2 1 0 -1 -1 -2 -2 -3 -4 -4 -5 -6 -6 -7 -8 -8 -9 -9 -9 -9 -9 -9 -9
15 15 15 15 15 15 15 15 15 14 14 13 12 12 10 9 7 5 4 2 1 1 -0 -1 -1 -2 -2 -3 -4 -4 -5 -6 -7 -7 -8 -8 -9 -9 -9 -9 -9 -9 -9
14 14 14 14 14 14 14 14 14 14 13 13 12 11 10 8 6 5 3 2 1 0 -1 -1 -2 -2 -2 -3 -4 -5 -6 -6 -7 -7 -8 -8 -9 -9 -9 -9 -9 -9 -9
13 13 13 13 13 13 13 13 13 13 13 12 12 11 9 8 6 4 2 1 0 -0 -1 -1 -2 -2 -2 -3 -4 -5 -6 -7 -7 -8 -8 -8 -9 -9 -9 -9 -9 -9 -9
12 12 12 12 12 12 13 12 12 12 12 12 11 10 9 7 5 3 2 1 0 -0 -1 -1 -2 -2 -3 -3 -4 -5 -6 -7 -7 -8 -8 -8 -9 -9 -9 -9 -9 -9 -9
11 11 11 11 11 12 11 11 11 11 11 11 10 9 8 6 5 3 2 1 0 -0 -1 -1 -2 -2 -3 -3 -4 -5 -6 -6 -7 -7 -8 -8 -9 -9 -9 -9 -9 -9 -9
10 10 10 10 10 11 10 10 10 10 10 10 9 8 7 6 4 3 2 0 -0 -1 -1 -2 -2 -3 -3 -4 -4 -5 -6 -6 -7 -7 -8 -8 -9 -9 -9 -9 -9 -9 -9
9 9 9 9 10 9 9 9 9 9 9 8 8 7 6 5 4 2 1 -0 -1 -1 -2 -2 -2 -3 -3 -4 -4 -5 -6 -6 -7 -8 -8 -8 -9 -9 -9 -9 -9 -10 -10
9 8 8 8 9 9 8 8 8 8 7 7 7 6 5 4 2 1 0 -1 -1 -2 -2 -2 -3 -3 -4 -4 -4 -5 -6 -7 -8 -8 -8 -8 -9 -9 -9 -9 -10 -10 -10
8 7 7 7 8 8 7 7 7 7 6 6 6 6 4 3 1 -0 -1 -2 -2 -2 -3 -3 -3 -3 -4 -4 -4 -5 -6 -7 -8 -8 -8 -9 -9 -9 -9 -9 -10 -10 -10
6 6 6 6 7 7 6 6 6 5 5 6 5 5 3 2 0 -1 -2 -2 -2 -3 -3 -3 -3 -3 -4 -4 -4 -5 -6 -7 -7 -8 -8 -9 -9 -9 -9 -9 -9 -10 -10
6 5 5 5 5 5 6 5 5 4 4 5 4 3 2 0 -1 -2 -2 -2 -2 -2 -2 -2 -3 -3 -4 -4 -5 -5 -6 -7 -7 -8 -8 -8 -9 -9 -9 -9 -9 -10 -10
5 5 4 4 4 4 4 4 4 3 3 4 3 2 1 -1 -2 -3 -3 -4 -3 -3 -3 -3 -3 -4 -4 -4 -5 -5 -6 -7 -8 -9 -8 -8 -9 -9 -9 -9 -9 -10 -10
Wind_Speed
16 11 14 15 13 15 17 18 18 15 12 7 6 6 6 6 7 15 18 19 18 17 15 11 11 10 6 6 5 4 5 4 3 4 6 7 8 9 7 10 11 14 17
11 11 13 16 19 19 19 19 20 19 17 13 8 5 4 5 7 12 16 19 18 18 15 14 11 10 6 6 6 5 3 4 2 2 5 5 4 3 7 7 7 10 14
16 13 15 17 18 21 23 21 22 20 18 14 7 4 3 2 5 7 8 16 19 18 17 15 13 11 8 6 7 6 6 5 3 4 3 3 5 8 5 7 8 8 7
14 13 14 16 21 23 20 20 20 20 18 17 15 13 12 11 11 8 8 12 18 18 18 16 15 13 10 7 7 7 6 5 5 4 6 7 6 5 8 6 5 8 10
14 15 17 19 19 18 17 18 18 19 19 20 21 19 16 11 6 6 8 9 12 16 17 17 15 13 11 9 9 6 7 6 6 5 5 6 7 8 8 14 13 9 7
11 13 13 12 13 13 15 16 18 20 19 21 21 21 20 14 10 10 10 9 7 9 14 16 15 14 11 10 10 9 8 8 8 8 7 6 6 7 8 11 16 17 12
9 10 11 12 14 15 17 17 19 21 20 21 22 22 21 18 18 15 14 11 9 8 11 13 12 12 13 13 12 8 9 9 9 9 8 9 10 9 10 13 16 18 16
9 10 11 11 12 14 15 17 21 22 21 22 23 20 18 15 14 15 12 13 11 11 10 13 13 14 14 13 11 8 9 8 10 11 10 9 10 10 11 12 14 17 18
11 11 10 10 11 12 15 18 20 20 20 22 20 19 19 18 16 14 13 10 10 9 12 12 11 12 13 12 10 8 9 8 9 10 11 11 11 10 11 11 12 13 18
11 11 10 9 9 10 11 13 18 20 19 18 19 17 18 19 16 13 14 13 12 10 10 11 10 10 10 10 9 9 9 10 10 9 10 12 11 10 11 12 12 13 15
12 12 10 8 8 8 9 12 15 16 16 18 18 18 17 17 16 16 16 15 13 13 13 12 11 11 11 10 10 10 9 11 11 11 11 14 13 11 11 11 12 13 13
12 11 10 8 7 7 8 11 13 15 16 15 16 18 16 16 17 18 17 15 14 14 13 12 12 11 11 10 11 11 11 11 12 12 12 14 12 13 12 12 14 14 14
12 10 9 8 8 7 8 10 12 14 13 13 15 16 17 18 20 19 17 15 15 14 13 12 12 12 11 11 11 11 11 11 12 13 13 14 13 15 13 14 14 14 15
11 10 10 9 8 7 8 9 11 12 12 14 16 18 20 20 19 17 16 16 16 15 14 14 13 12 11 11 10 10 11 12 13 13 13 14 14 15 15 15 16 15 15
12 11 10 9 8 8 8 9 11 11 13 15 18 20 18 16 15 16 16 15 15 15 14 13 12 11 10 10 11 11 12 12 13 13 13 13 17 20 18 15 13 13 12
11 11 11 11 10 9 9 9 10 11 12 16 18 16 14 15 16 16 15 15 15 13 13 13 12 11 10 15 18 14 11 12 12 12 11 12 15 19 24 26 25 22 15
11 12 12 11 11 11 10 10 10 9 12 16 16 15 15 16 16 16 16 16 15 14 13 12 12 12 13 18 19 20 12 10 10 10 10 10 11 17 11 20 24 20 23
11 12 11 12 11 10 10 9 8 8 11 14 15 14 15 16 15 15 16 16 13 14 13 13 12 11 13 18 18 19 12 8 9 9 9 10 11 13 15 14 11 11 12
12 12 12 12 11 12 10 8 8 7 10 13 15 15 15 16 16 17 17 15 13 13 13 11 12 12 13 17 17 17 7 8 9 9 9 10 10 19 23 14 10 10 10
11 12 11 11 12 12 8 7 9 9 13 14 14 13 14 16 17 17 16 13 13 13 12 12 12 12 11 14 16 17 7 8 8 8 9 14 15 20 21 11 8 11 11
13 12 11 11 12 11 8 9 11 13 12 10 10 11 13 15 15 14 12 12 13 12 12 12 10 11 12 13 16 17 8 8 8 8 6 7 17 20 20 17 9 14 14
12 11 10 12 12 10 8 10 14 13 9 8 9 11 12 12 12 12 12 12 13 13 12 10 9 9 10 13 14 17 16 13 8 7 6 8 17 18 18 14 15 20 15
11 10 11 13 13 10 8 12 14 11 9 9 9 9 10 11 11 12 13 12 12 11 11 10 10 9 8 10 17 17 16 15 9 7 11 14 16 15 11 14 17 14 8
11 10 11 13 15 13 11 11 13 11 9 10 9 8 9 10 10 11 12 12 13 12 11 11 10 9 7 8 7 7 8 11 9 7 9 13 13 11 11 11 10 7 7
10 10 11 13 16 15 15 13 11 10 10 10 9 8 9 9 11 12 12 14 14 15 14 12 11 10 9 11 15 10 8 7 8 6 3 2 3 5 5 6 7 6 7
11 12 13 14 15 15 16 15 11 9 9 9 8 7 7 8 9 10 10 19 17 21 22 18 14 11 12 13 15 15 14 13 11 6 2 3 4 5 6 7 8 8 8
Wind_Direction
239 212 204 202 199 200 202 203 202 197 185 179 183 188 207 204 204 208 208 206 206 206 206 210 218 221 219 226 231 241 265 265 258 282 290 276 260 252 252 258 270 280 287
238 213 202 200 204 206 206 206 206 199 196 196 182 177 176 192 203 205 206 206 205 205 207 209 212 217 219 227 230 221 244 262 269 276 310 315 298 255 255 254 264 273 282
236 222 209 207 207 210 209 208 207 203 199 190 169 150 140 150 179 200 205 206 204 205 206 208 211 215 213 222 228 219 223 247 254 209 232 286 297 309 262 246 260 264 273
232 225 214 212 212 215 210 209 205 203 198 189 190 190 198 205 203 195 196 197 201 204 207 210 212 214 216 218 228 225 217 226 253 238 222 224 240 284 302 286 260 263 278
226 227 221 219 218 214 207 207 205 205 199 197 200 203 211 211 185 179 187 195 201 205 208 211 211 214 217 221 225 228 225 222 236 239 235 242 246 238 263 293 298 290 271
232 234 230 221 219 207 204 203 204 208 202 201 204 207 211 202 188 191 196 200 201 205 210 212 212 215 218 221 225 227 229 232 236 243 240 240 245 251 255 277 292 297 294
250 242 233 222 219 208 205 202 204 210 205 204 208 211 212 205 205 201 202 198 200 206 209 209 210 214 220 225 228 226 232 232 236 241 246 246 248 253 261 272 284 290 293
265 252 241 229 224 215 206 203 207 212 206 207 212 212 211 209 212 207 201 201 204 206 199 205 210 215 220 226 227 228 235 235 238 247 247 252 255 253 256 263 277 289 293
278 265 256 238 227 217 210 207 209 212 210 210 210 211 210 211 211 205 202 202 202 199 200 204 209 216 220 224 225 233 237 238 243 249 251 253 258 257 256 258 259 271 289
289 280 268 253 237 225 215 206 210 214 213 209 210 213 212 212 210 203 203 204 202 198 193 201 208 214 220 224 224 235 239 241 247 250 252 255 259 260 261 260 259 257 266
291 285 278 265 245 227 212 209 212 214 213 211 211 213 211 209 207 208 208 205 201 199 202 204 209 215 221 222 226 235 238 244 252 254 255 259 261 264 266 264 263 262 262
286 285 284 279 261 240 222 216 215 216 217 212 210 214 211 206 208 212 209 203 201 200 202 203 209 217 222 222 226 238 243 243 251 256 258 262 265 265 267 268 267 266 263
301 301 299 288 274 255 234 224 221 221 216 208 211 213 212 210 212 212 207 202 201 200 201 203 210 217 221 224 229 234 243 245 249 254 256 260 264 268 269 269 270 269 268
305 308 307 300 287 266 244 234 231 222 213 209 213 217 217 215 214 211 205 202 200 199 201 205 211 215 220 226 232 235 243 248 252 254 254 257 260 265 269 271 269 269 270
318 318 312 307 299 283 260 242 237 223 212 213 218 223 220 216 212 209 206 202 200 201 200 202 209 214 219 226 230 235 242 247 253 254 254 257 264 269 276 279 278 276 277
314 313 311 308 302 289 273 256 243 226 211 218 224 224 217 213 211 209 204 200 200 199 196 201 207 214 223 238 246 248 240 243 248 254 257 261 271 279 286 290 293 292 291
305 306 305 300 296 291 278 267 253 228 216 224 228 222 216 215 212 207 203 201 199 195 197 201 206 217 228 240 251 259 258 244 244 249 258 269 273 286 284 287 290 291 291
306 305 302 301 298 294 288 277 262 235 226 230 231 223 215 216 210 205 206 204 198 196 199 201 207 217 230 240 251 260 262 250 245 248 252 261 269 276 284 280 279 272 275
294 293 294 295 297 297 295 287 274 253 240 238 235 225 216 214 209 208 207 202 196 197 198 199 204 213 229 238 248 258 250 250 251 253 255 261 265 282 292 296 287 285 284
305 305 306 305 304 304 304 290 279 264 253 247 240 228 217 214 213 212 206 199 195 198 196 202 204 210 220 233 244 253 245 250 257 257 256 273 283 290 298 298 289 292 295
303 304 306 304 301 304 304 289 282 272 267 259 245 230 220 218 217 211 202 192 192 191 195 201 205 210 219 230 240 248 238 242 255 263 258 264 288 295 301 306 299 296 309
308 311 311 308 306 306 300 291 287 284 279 260 242 231 221 216 214 205 198 191 189 189 194 199 207 215 221 226 235 243 247 251 247 255 259 269 288 298 304 309 305 311 321
309 311 310 308 308 305 293 289 291 294 284 264 249 236 220 211 204 200 197 192 191 193 194 197 208 214 210 219 231 239 247 255 254 252 270 284 296 304 308 305 309 318 316
309 310 312 312 311 311 303 287 291 293 281 268 257 236 219 211 204 202 200 198 196 196 195 197 205 209 204 207 215 226 244 252 262 273 278 289 298 301 299 304 309 306 298
304 305 304 302 303 306 305 300 295 290 280 270 258 239 223 213 208 208 209 207 207 200 196 200 198 196 206 214 209 206 218 220 235 246 239 256 286 294 296 297 296 297 302
301 302 300 301 304 306 304 303 299 287 276 274 259 240 225 215 211 212 220 224 218 216 212 207 200 205 207 209 213 220 231 241 248 249 231 258 272 283 293 300 304 305 304
Height
1506 1510 1512 1515 1517 1519 1521 1522 1525 1527 1529 1531 1531 1532 1533 1535 1535 1536 1535 1535 1534 1533 1531 1530 1528 1526 1524 1522 1519 1517 1514 1511 1507 1502 1496 1493 1491 1489 1486 1484 1482 1480 1477
1498 1502 1505 1507 1509 1510 1512 1514 1516 1518 1520 1522 1524 1526 1527 1528 1529 1529 1529 1528 1527 1527 1525 1524 1523 1521 1519 1517 1515 1512 1509 1507 1504 1499 1492 1486 1482 1479 1479 1477 1475 1473 1470
1491 1494 1497 1499 1501 1502 1503 1505 1507 1509 1512 1514 1517 1518 1519 1519 1520 1520 1521 1521 1521 1520 1519 1518 1517 1515 1514 1512 1510 1507 1504 1502 1500 1497 1494 1488 1480 1474 1469 1469 1467 1465 1462
1485 1488 1490 1491 1493 1494 1497 1499 1500 1502 1504 1506 1507 1507 1508 1508 1510 1513 1514 1514 1514 1513 1512 1512 1510 1509 1508 1506 1504 1502 1499 1497 1494 1493 1490 1488 1483 1477 1466 1460 1459 1458 1454
1481 1482 1484 1485 1487 1489 1490 1491 1493 1494 1495 1496 1497 1498 1499 1501 1504 1506 1506 1506 1506 1506 1505 1505 1504 1503 1501 1500 1498 1496 1494 1491 1489 1487 1484 1482 1479 1475 1469 1457 1451 1448 1446
1477 1478 1479 1481 1481 1483 1483 1484 1485 1485 1486 1487 1488 1488 1490 1492 1494 1496 1497 1498 1499 1498 1498 1497 1497 1496 1495 1493 1492 1490 1488 1486 1483 1481 1478 1476 1473 1469 1465 1456 1447 1440 1436
1473 1474 1474 1475 1476 1476 1477 1477 1477 1477 1478 1478 1478 1479 1480 1483 1484 1487 1489 1490 1490 1490 1491 1490 1490 1489 1488 1487 1485 1483 1481 1479 1477 1474 1472 1469 1466 1463 1459 1453 1444 1435 1428
1470 1470 1470 1471 1471 1471 1471 1471 1470 1470 1470 1469 1469 1470 1472 1473 1475 1477 1480 1481 1482 1483 1484 1483 1482 1482 1481 1479 1478 1476 1474 1472 1470 1467 1465 1462 1459 1456 1453 1448 1441 1431 1421
1467 1466 1466 1466 1466 1465 1465 1464 1463 1463 1462 1462 1462 1462 1462 1463 1465 1468 1470 1472 1474 1475 1475 1475 1475 1474 1473 1472 1470 1468 1467 1465 1462 1460 1457 1454 1451 1449 1445 1441 1437 1431 1418
1463 1462 1462 1461 1460 1459 1458 1457 1456 1455 1455 1454 1453 1453 1454 1455 1457 1459 1460 1462 1465 1466 1466 1466 1467 1466 1466 1465 1463 1461 1459 1457 1454 1452 1449 1446 1444 1441 1437 1433 1429 1424 1416
1460 1458 1456 1455 1454 1452 1451 1450 1449 1448 1447 1446 1445 1444 1444 1446 1447 1448 1450 1452 1455 1456 1457 1458 1458 1458 1458 1457 1455 1453 1452 1449 1446 1444 1442 1438 1437 1433 1429 1425 1420 1415 1410
1456 1453 1451 1449 1447 1445 1444 1443 1442 1440 1439 1438 1437 1435 1435 1435 1436 1437 1439 1442 1444 1446 1447 1449 1449 1450 1450 1449 1448 1446 1444 1441 1438 1436 1434 1431 1429 1425 1421 1417 1412 1407 1402
1451 1448 1445 1443 1441 1439 1438 1437 1435 1433 1432 1430 1428 1426 1425 1424 1425 1426 1429 1431 1434 1436 1438 1439 1440 1441 1441 1441 1440 1438 1436 1433 1431 1429 1426 1423 1421 1417 1413 1409 1404 1398 1393
1447 1444 1441 1439 1437 1435 1433 1431 1429 1427 1424 1422 1419 1416 1415 1414 1415 1417 1418 1421 1423 1425 1428 1430 1431 1432 1433 1433 1432 1430 1428 1426 1423 1421 1419 1416 1413 1409 1405 1400 1395 1391 1385
1445 1442 1439 1437 1434 1431 1429 1426 1423 1420 1417 1413 1410 1407 1406 1405 1405 1406 1408 1411 1413 1416 1419 1421 1422 1424 1425 1425 1424 1423 1420 1418 1416 1414 1411 1409 1405 1402 1398 1394 1389 1384 1379
1444 1441 1438 1435 1431 1428 1424 1421 1417 1414 1409 1405 1401 1399 1397 1395 1395 1396 1398 1401 1404 1407 1410 1412 1414 1416 1417 1417 1417 1415 1413 1410 1408 1406 1404 1401 1398 1394 1390 1387 1383 1379 1373
1442 1439 1435 1431 1427 1423 1419 1414 1410 1406 1401 1397 1393 1390 1387 1385 1385 1386 1388 1390 1393 1397 1400 1403 1406 1407 1409 1409 1409 1408 1406 1403 1401 1399 1396 1393 1390 1387 1382 1378 1374 1370 1366
1440 1435 1430 1426 1421 1417 1412 1408 1403 1398 1393 1389 1384 1380 1377 1375 1375 1376 1378 1381 1384 1387 1391 1394 1397 1399 1401 1402 1401 1400 1398 1396 1394 1392 1389 1386 1382 1379 1375 1371 1366 1362 1358
1435 1430 1425 1420 1415 1410 1405 1400 1395 1390 1385 1380 1376 1372 1368 1366 1365 1365 1368 1371 1375 1378 1382 1386 1389 1391 1393 1394 1393 1393 1390 1388 1386 1385 1383 1380 1376 1372 1369 1366 1360 1355 1350
1429 1424 1418 1414 1409 1404 1398 1393 1388 1382 1377 1372 1367 1363 1360 1357 1356 1356 1359 1362 1366 1370 1374 1377 1380 1382 1384 1386 1385 1385 1383 1381 1379 1377 1376 1373 1370 1367 1364 1360 1355 1348 1343
1423 1418 1412 1407 1402 1397 1391 1385 1380 1374 1369 1364 1359 1355 1352 1349 1348 1348 1350 1353 1357 1361 1365 1369 1372 1374 1376 1377 1378 1377 1376 1374 1372 1371 1368 1366 1364 1361 1359 1355 1350 1344 1339
1416 1411 1405 1400 1396 1391 1384 1377 1372 1367 1361 1355 1350 1346 1343 1341 1339 1340 1341 1344 1348 1352 1356 1360 1363 1366 1368 1369 1370 1370 1369 1368 1367 1364 1362 1360 1358 1356 1353 1349 1344 1340 1334
1410 1404 1399 1393 1388 1384 1378 1370 1365 1359 1353 1347 1342 1338 1334 1332 1331 1331 1333 1336 1339 1343 1347 1351 1354 1358 1360 1362 1363 1363 1362 1362 1361 1359 1357 1355 1353 1350 1346 1343 1339 1334 1329
1404 1398 1392 1386 1380 1376 1371 1364 1358 1352 1345 1340 1335 1330 1326 1324 1323 1323 1325 1327 1330 1334 1338 1342 1345 1349 1353 1355 1356 1356 1356 1355 1354 1353 1351 1349 1347 1344 1341 1338 1334 1330 1325
1398 1392 1386 1379 1373 1368 1363 1357 1351 1344 1338 1333 1327 1323 1319 1316 1315 1315 1316 1318 1322 1326 1330 1334 1338 1342 1345 1348 1349 1350 1349 1349 1348 1347 1345 1343 1341 1339 1336 1333 1329 1325 1320
1391 1385 1379 1373 1366 1360 1354 1350 1344 1337 1331 1325 1321 1316 1312 1310 1308 1308 1310 1312 1316 1321 1325 1329 1332 1335 1339 1342 1342 1343 1344 1344 1343 1342 1340 1338 1336 1333 1331 1327 1324 1320 1316